Auburn, AL

10:12 PM CST on January 18, 2018 (GMT -0600)
Auburn-opelika-pitts

Weather History for KAUO - January, 2014

Change the Weather History Date:

Wednesday, January 8, 2014

  Actual Average Record
Temperature  
Mean Temperature 31 °F -  
Max Temperature 45 °F - 73 °F (1989)
Min Temperature 16 °F - 9 °F (1970)
Degree Days  
Heating Degree Days 34    
Month to date heating degree days 258  
Since 1 July heating degree days 1161  
Moisture  
Dew Point 4 °F    
Average Humidity 39    
Maximum Humidity 68    
Minimum Humidity 18    
Precipitation  
Precipitation 0.00 in - 1.61 in (1973)
Month to date precipitation 0.50  
Year to date precipitation 0.50  
Sea Level Pressure  
Sea Level Pressure 30.46 in    
Wind  
Wind Speed 5 mph (ENE)    
Max Wind Speed 8 mph    
Max Gust Speed -    
Visibility 10 miles    
Events      
T = Trace of Precipitation, MM = Missing Value Source: NWS Daily Summary

Daily Weather History Graph

Daily Weather History Graph

Search for Another Location

Airport or City:

Trip Planner

Search our weather history database for the weather conditions in past years. The results will help you decide how hot, cold, wet, or windy it might be!

Date:

Astronomy

Jan. 08, 2014 Rise Set
Actual Time 6:44 AM CST 4:52 PM CST
Civil Twilight 6:17 AM CST 5:19 PM CST
Nautical Twilight 5:47 AM CST 5:50 PM CST
Astronomical Twilight 5:17 AM CST 6:19 PM CST
Moon 11:34 AM CST (1/8) 12:01 AM CST (1/8)
Length of Visible Light 11h 01m
Length of Day
10h 08m
First Quarter, 56% of the Moon is Illuminated
Jan 8
First Quarter
Jan 15
Full
Jan 23
Last Quarter
Jan 30
New
Feb 6
First Quarter

Hourly Weather History & Observations

Time (CST) Temp. Windchill Dew Point Humidity Pressure Visibility Wind Dir Wind Speed Gust Speed Precip Events Conditions
12:15 AM 17.6 °F 8.2 °F 3.2 °F 53% 30.46 in 10.0 mi NNE 6.9 mph - N/A   Clear
12:35 AM 15.8 °F 6.1 °F 3.2 °F 58% 30.46 in 10.0 mi NNE 6.9 mph - N/A   Clear
12:55 AM 17.6 °F 9.3 °F 3.2 °F 53% 30.46 in 10.0 mi NNE 5.8 mph - N/A   Clear
1:15 AM 15.8 °F 7.2 °F 3.2 °F 58% 30.47 in 10.0 mi NNE 5.8 mph - N/A   Clear
1:35 AM 15.8 °F 7.2 °F 3.2 °F 58% 30.46 in 10.0 mi NNE 5.8 mph - N/A   Clear
1:55 AM 15.8 °F 7.2 °F 3.2 °F 58% 30.46 in 10.0 mi NNE 5.8 mph - N/A   Clear
2:15 AM 15.8 °F 7.2 °F 3.2 °F 58% 30.47 in 10.0 mi NNE 5.8 mph - N/A   Clear
2:35 AM 15.8 °F 10.2 °F 5.0 °F 62% 30.47 in 10.0 mi NE 3.5 mph - N/A   Clear
2:55 AM 15.8 °F 10.2 °F 6.8 °F 68% 30.47 in 10.0 mi NE 3.5 mph - N/A   Clear
3:15 AM 15.8 °F 8.6 °F 6.8 °F 68% 30.48 in 10.0 mi NNE 4.6 mph - N/A   Clear
3:35 AM 15.8 °F 7.2 °F 6.8 °F 68% 30.47 in 10.0 mi NNE 5.8 mph - N/A   Clear
3:55 AM 15.8 °F 6.1 °F 6.8 °F 68% 30.47 in 10.0 mi NNE 6.9 mph - N/A   Clear
4:15 AM 15.8 °F 6.1 °F 6.8 °F 68% 30.47 in 10.0 mi NNE 6.9 mph - N/A   Clear
4:35 AM 15.8 °F 6.1 °F 6.8 °F 68% 30.47 in 10.0 mi NNE 6.9 mph - N/A   Clear
4:55 AM 15.8 °F 6.1 °F 6.8 °F 68% 30.47 in 10.0 mi NNE 6.9 mph - N/A   Clear
5:15 AM 15.8 °F 5.1 °F 6.8 °F 68% 30.47 in 10.0 mi NNE 8.1 mph - N/A   Clear
5:35 AM 15.8 °F 6.1 °F 5.0 °F 62% 30.47 in 10.0 mi NE 6.9 mph - N/A   Clear
5:55 AM 15.8 °F 5.1 °F 3.2 °F 58% 30.46 in 10.0 mi NE 8.1 mph - N/A   Clear
6:15 AM 17.6 °F 8.2 °F 3.2 °F 53% 30.47 in 10.0 mi NE 6.9 mph - N/A   Clear
6:35 AM 17.6 °F 9.3 °F 3.2 °F 53% 30.48 in 10.0 mi NE 5.8 mph - N/A   Clear
6:55 AM 17.6 °F 8.2 °F 3.2 °F 53% 30.49 in 10.0 mi NE 6.9 mph - N/A   Clear
7:15 AM 17.6 °F 8.2 °F 5.0 °F 58% 30.50 in 10.0 mi NNE 6.9 mph - N/A   Clear
7:35 AM 19.4 °F 7.9 °F 5.0 °F 54% 30.51 in 10.0 mi NNE 10.4 mph - N/A   Clear
7:55 AM 21.2 °F 11.7 °F 5.0 °F 50% 30.51 in 10.0 mi NE 8.1 mph - N/A   Clear
8:15 AM 23.0 °F 13.1 °F 3.2 °F 43% 30.51 in 10.0 mi NE 9.2 mph - N/A   Clear
8:35 AM 24.8 °F 16.1 °F 3.2 °F 40% 30.52 in 10.0 mi ENE 8.1 mph - N/A   Clear
8:55 AM 26.6 °F 19.1 °F 5.0 °F 40% 30.53 in 10.0 mi NE 6.9 mph - N/A   Clear
9:15 AM 26.6 °F 20.0 °F 6.8 °F 43% 30.54 in 10.0 mi East 5.8 mph - N/A   Clear
9:35 AM 28.4 °F 21.2 °F 5.0 °F 37% 30.55 in 10.0 mi NE 6.9 mph - N/A   Clear
9:55 AM 30.2 °F 26.7 °F 6.8 °F 37% 30.54 in 10.0 mi NE 3.5 mph - N/A   Clear
10:15 AM 30.2 °F 23.4 °F 5.0 °F 34% 30.54 in 10.0 mi NE 6.9 mph - N/A   Clear
10:35 AM 30.2 °F 23.4 °F 3.2 °F 32% 30.53 in 10.0 mi East 6.9 mph - N/A   Clear
10:55 AM 33.8 °F 29.6 °F 3.2 °F 28% 30.52 in 10.0 mi NE 4.6 mph - N/A   Clear
11:15 AM 35.6 °F 30.7 °F 3.2 °F 26% 30.50 in 10.0 mi NE 5.8 mph - N/A   Clear
11:35 AM 35.6 °F 32.8 °F 3.2 °F 26% 30.48 in 10.0 mi ESE 3.5 mph - N/A   Clear
11:55 AM 37.4 °F 34.9 °F 3.2 °F 24% 30.47 in 10.0 mi North 3.5 mph - N/A   Clear
12:15 PM 39.2 °F - 3.2 °F 22% 30.45 in 10.0 mi Calm Calm - N/A   Clear
12:35 PM 39.2 °F 37.0 °F 1.4 °F 21% 30.45 in 10.0 mi ENE 3.5 mph - N/A   Clear
12:55 PM 41.0 °F 39.0 °F 3.2 °F 21% 30.44 in 10.0 mi North 3.5 mph - N/A   Clear
1:15 PM 39.2 °F - 3.2 °F 22% 30.43 in 10.0 mi Calm Calm - N/A   Clear
1:35 PM 41.0 °F - 3.2 °F 21% 30.43 in 10.0 mi Calm Calm - N/A   Clear
1:55 PM 42.8 °F 41.1 °F 3.2 °F 19% 30.43 in 10.0 mi ESE 3.5 mph - N/A   Clear
2:15 PM 42.8 °F 41.1 °F 3.2 °F 19% 30.43 in 10.0 mi ESE 3.5 mph - N/A   Clear
2:35 PM 42.8 °F 38.0 °F 3.2 °F 19% 30.42 in 10.0 mi East 8.1 mph - N/A   Clear
2:55 PM 42.8 °F 39.3 °F 3.2 °F 19% 30.42 in 10.0 mi NE 5.8 mph - N/A   Clear
3:15 PM 42.8 °F 37.5 °F 3.2 °F 19% 30.42 in 10.0 mi ENE 9.2 mph - N/A   Clear
3:35 PM 42.8 °F 39.3 °F 1.4 °F 18% 30.43 in 10.0 mi East 5.8 mph - N/A   Clear
3:55 PM 42.8 °F 39.3 °F 1.4 °F 18% 30.43 in 10.0 mi East 5.8 mph - N/A   Clear
4:15 PM 42.8 °F 39.3 °F 3.2 °F 19% 30.42 in 10.0 mi ESE 5.8 mph - N/A   Clear
4:35 PM 41.0 °F 38.0 °F 3.2 °F 21% 30.43 in 10.0 mi East 4.6 mph - N/A   Clear
4:55 PM 39.2 °F - 3.2 °F 22% 30.43 in 10.0 mi Calm Calm - N/A   Clear
5:15 PM 37.4 °F - 3.2 °F 24% 30.43 in 10.0 mi Calm Calm - N/A   Clear
5:35 PM 35.6 °F 32.8 °F 3.2 °F 26% 30.43 in 10.0 mi East 3.5 mph - N/A   Clear
5:55 PM 35.6 °F 32.8 °F 5.0 °F 28% 30.43 in 10.0 mi ESE 3.5 mph - N/A   Clear
6:15 PM 33.8 °F 30.8 °F 6.8 °F 32% 30.43 in 10.0 mi ESE 3.5 mph - N/A   Clear
6:35 PM 33.8 °F 30.8 °F 3.2 °F 28% 30.43 in 10.0 mi East 3.5 mph - N/A   Clear
6:55 PM 33.8 °F 29.6 °F 3.2 °F 28% 30.43 in 10.0 mi ESE 4.6 mph - N/A   Clear
7:15 PM 33.8 °F 29.6 °F 6.8 °F 32% 30.44 in 10.0 mi ESE 4.6 mph - N/A   Clear
7:35 PM 33.8 °F 30.8 °F 3.2 °F 28% 30.44 in 10.0 mi East 3.5 mph - N/A   Clear
7:55 PM 33.8 °F 28.6 °F 3.2 °F 28% 30.44 in 10.0 mi East 5.8 mph - N/A   Clear
8:15 PM 33.8 °F 27.0 °F 6.8 °F 32% 30.44 in 10.0 mi East 8.1 mph - N/A   Clear
8:35 PM 33.8 °F 27.7 °F 5.0 °F 30% 30.44 in 10.0 mi East 6.9 mph - N/A   Clear
8:55 PM 33.8 °F 27.7 °F 5.0 °F 30% 30.44 in 10.0 mi East 6.9 mph - N/A   Clear
9:15 PM 33.8 °F 28.6 °F 5.0 °F 30% 30.44 in 10.0 mi East 5.8 mph - N/A   Clear
9:35 PM 33.8 °F 27.7 °F 5.0 °F 30% 30.44 in 10.0 mi East 6.9 mph - N/A   Clear
9:55 PM 33.8 °F 27.7 °F 5.0 °F 30% 30.44 in 10.0 mi East 6.9 mph - N/A   Clear
10:15 PM 33.8 °F 27.7 °F 5.0 °F 30% 30.43 in 10.0 mi East 6.9 mph - N/A   Clear
10:35 PM 33.8 °F 28.6 °F 6.8 °F 32% 30.43 in 10.0 mi East 5.8 mph - N/A   Clear
10:55 PM 30.2 °F 25.4 °F 6.8 °F 37% 30.42 in 10.0 mi East 4.6 mph - N/A   Clear
11:15 PM 32.0 °F 27.5 °F 6.8 °F 35% 30.42 in 10.0 mi East 4.6 mph - N/A   Clear
11:35 PM 32.0 °F 27.5 °F 6.8 °F 35% 30.42 in 10.0 mi ENE 4.6 mph - N/A   Clear
11:55 PM 30.2 °F 25.4 °F 8.6 °F 40% 30.41 in 10.0 mi East 4.6 mph - N/A   Clear